Year,Month,Day,Hour,Minute,Value (Times are PST for barometer in hPa)
2016,10,16,00,00,984.76
2016,10,16,00,01,984.83
2016,10,16,00,02,984.86
2016,10,16,00,03,984.90
2016,10,16,00,04,984.93
2016,10,16,00,05,984.93
2016,10,16,00,06,985.00
2016,10,16,00,07,985.00
2016,10,16,00,08,985.00
2016,10,16,00,09,984.97
2016,10,16,00,10,985.00
2016,10,16,00,11,985.00
2016,10,16,00,12,985.03
2016,10,16,00,13,985.10
2016,10,16,00,14,985.20
2016,10,16,00,15,985.20
2016,10,16,00,16,985.24
2016,10,16,00,17,985.34
2016,10,16,00,18,985.37
2016,10,16,00,19,985.44
2016,10,16,00,20,985.44
2016,10,16,00,21,985.47
2016,10,16,00,22,985.57
2016,10,16,00,23,985.64
2016,10,16,00,24,985.64
2016,10,16,00,25,985.71
2016,10,16,00,26,985.78
2016,10,16,00,27,985.81
2016,10,16,00,28,985.85
2016,10,16,00,29,985.88
2016,10,16,00,30,985.91
2016,10,16,00,31,985.98
2016,10,16,00,32,986.02
2016,10,16,00,33,986.02
2016,10,16,00,34,986.08
2016,10,16,00,35,986.05
2016,10,16,00,36,986.08
2016,10,16,00,37,986.12
2016,10,16,00,38,986.12
2016,10,16,00,39,986.18
2016,10,16,00,40,986.18
2016,10,16,00,41,986.25
2016,10,16,00,42,986.25
2016,10,16,00,43,986.35
2016,10,16,00,44,986.39
2016,10,16,00,45,986.42
2016,10,16,00,46,986.49
2016,10,16,00,47,986.52
2016,10,16,00,48,986.56
2016,10,16,00,49,986.59
2016,10,16,00,50,986.56
2016,10,16,00,51,986.59
2016,10,16,00,52,986.62
2016,10,16,00,53,986.66
2016,10,16,00,54,986.79
2016,10,16,00,55,986.76
2016,10,16,00,56,986.83
2016,10,16,00,57,986.86
2016,10,16,00,58,986.83
2016,10,16,00,59,986.79
2016,10,16,01,00,986.86
2016,10,16,01,01,986.90
2016,10,16,01,02,986.93
2016,10,16,01,03,986.93
2016,10,16,01,04,986.90
2016,10,16,01,05,986.96
2016,10,16,01,06,987.03
2016,10,16,01,07,987.03
2016,10,16,01,08,987.10
2016,10,16,01,09,987.10
2016,10,16,01,10,987.17
2016,10,16,01,11,987.17
2016,10,16,01,12,987.27
2016,10,16,01,13,987.30
2016,10,16,01,14,987.40
2016,10,16,01,15,987.40
2016,10,16,01,16,987.47
2016,10,16,01,17,987.47
2016,10,16,01,18,987.51
2016,10,16,01,19,987.54
2016,10,16,01,20,987.64
2016,10,16,01,21,987.67
2016,10,16,01,22,987.64
2016,10,16,01,23,987.67
2016,10,16,01,24,987.71
2016,10,16,01,25,987.78
2016,10,16,01,26,987.74
2016,10,16,01,27,987.74
2016,10,16,01,28,987.78
2016,10,16,01,29,987.78
2016,10,16,01,30,987.78
2016,10,16,01,31,987.74
2016,10,16,01,32,987.78
2016,10,16,01,33,987.78
2016,10,16,01,34,987.78
2016,10,16,01,35,987.81
2016,10,16,01,36,987.78
2016,10,16,01,37,987.81
2016,10,16,01,38,987.84
2016,10,16,01,39,987.81
2016,10,16,01,40,987.88
2016,10,16,01,41,987.88
2016,10,16,01,42,987.91
2016,10,16,01,43,987.98
2016,10,16,01,44,987.95
2016,10,16,01,45,988.01
2016,10,16,01,46,987.98
2016,10,16,01,47,988.05
2016,10,16,01,48,988.01
2016,10,16,01,49,988.01
2016,10,16,01,50,988.01
2016,10,16,01,51,988.01
2016,10,16,01,52,988.08
2016,10,16,01,53,988.05
2016,10,16,01,54,988.01
2016,10,16,01,55,988.08
2016,10,16,01,56,988.11
2016,10,16,01,57,988.11
2016,10,16,01,58,988.18
2016,10,16,01,59,988.25
2016,10,16,02,00,988.25
2016,10,16,02,01,988.28
2016,10,16,02,02,988.32
2016,10,16,02,03,988.32
2016,10,16,02,04,988.35
2016,10,16,02,05,988.35
2016,10,16,02,06,988.39
2016,10,16,02,07,988.39
2016,10,16,02,08,988.35
2016,10,16,02,09,988.39
2016,10,16,02,10,988.42
2016,10,16,02,11,988.42
2016,10,16,02,12,988.45
2016,10,16,02,13,988.49
2016,10,16,02,14,988.49
2016,10,16,02,15,988.49
2016,10,16,02,16,988.49
2016,10,16,02,17,988.49
2016,10,16,02,18,988.55
2016,10,16,02,19,988.49
2016,10,16,02,20,988.59
2016,10,16,02,21,988.62
2016,10,16,02,22,988.66
2016,10,16,02,23,988.69
2016,10,16,02,24,988.66
2016,10,16,02,25,988.69
2016,10,16,02,26,988.69
2016,10,16,02,27,988.66
2016,10,16,02,28,988.66
2016,10,16,02,29,988.72
2016,10,16,02,30,988.79
2016,10,16,02,31,988.83
2016,10,16,02,32,988.83
2016,10,16,02,33,988.86
2016,10,16,02,34,988.93
2016,10,16,02,35,988.89
2016,10,16,02,36,988.93
2016,10,16,02,37,988.96
2016,10,16,02,38,988.96
2016,10,16,02,39,988.93
2016,10,16,02,40,988.96
2016,10,16,02,41,989.03
2016,10,16,02,42,989.03
2016,10,16,02,43,989.06
2016,10,16,02,44,989.13
2016,10,16,02,45,989.10
2016,10,16,02,46,989.10
2016,10,16,02,47,989.13
2016,10,16,02,48,989.13
2016,10,16,02,49,989.16
2016,10,16,02,50,989.20
2016,10,16,02,51,989.16
2016,10,16,02,52,989.23
2016,10,16,02,53,989.16
2016,10,16,02,54,989.23
2016,10,16,02,55,989.30
2016,10,16,02,56,989.33
2016,10,16,02,57,989.33
2016,10,16,02,58,989.37
2016,10,16,02,59,989.40
2016,10,16,03,00,989.40
2016,10,16,03,01,989.40
2016,10,16,03,02,989.33
2016,10,16,03,03,989.37
2016,10,16,03,04,989.40
2016,10,16,03,05,989.44
2016,10,16,03,06,989.40
2016,10,16,03,07,989.44
2016,10,16,03,08,989.33
2016,10,16,03,09,989.37
2016,10,16,03,10,989.37
2016,10,16,03,11,989.37
2016,10,16,03,12,989.33
2016,10,16,03,13,989.33
2016,10,16,03,14,989.40
2016,10,16,03,15,989.37
2016,10,16,03,16,989.33
2016,10,16,03,17,989.37
2016,10,16,03,18,989.40
2016,10,16,03,19,989.44
2016,10,16,03,20,989.47
2016,10,16,03,21,989.50
2016,10,16,03,22,989.47
2016,10,16,03,23,989.44
2016,10,16,03,24,989.50
2016,10,16,03,25,989.54
2016,10,16,03,26,989.54
2016,10,16,03,27,989.57
2016,10,16,03,28,989.57
2016,10,16,03,29,989.60
2016,10,16,03,30,989.60
2016,10,16,03,31,989.57
2016,10,16,03,32,989.60
2016,10,16,03,33,989.64
2016,10,16,03,34,989.64
2016,10,16,03,35,989.67
2016,10,16,03,36,989.71
2016,10,16,03,37,989.64
2016,10,16,03,38,989.67
2016,10,16,03,39,989.67
2016,10,16,03,40,989.64
2016,10,16,03,41,989.64
2016,10,16,03,42,989.71
2016,10,16,03,43,989.71
2016,10,16,03,44,989.74
2016,10,16,03,45,989.77
2016,10,16,03,46,989.77
2016,10,16,03,47,989.77
2016,10,16,03,48,989.77
2016,10,16,03,49,989.77
2016,10,16,03,50,989.77
2016,10,16,03,51,989.84
2016,10,16,03,52,989.88
2016,10,16,03,53,989.88
2016,10,16,03,54,989.91
2016,10,16,03,55,989.94
2016,10,16,03,56,989.91
2016,10,16,03,57,989.94
2016,10,16,03,58,989.94
2016,10,16,03,59,989.94
2016,10,16,04,00,989.94
2016,10,16,04,01,989.91
2016,10,16,04,02,989.94
2016,10,16,04,03,989.94
2016,10,16,04,04,989.98
2016,10,16,04,05,989.98
2016,10,16,04,06,990.01
2016,10,16,04,07,989.98
2016,10,16,04,08,989.98
2016,10,16,04,09,989.94
2016,10,16,04,10,989.98
2016,10,16,04,11,989.91
2016,10,16,04,12,989.88
2016,10,16,04,13,989.88
2016,10,16,04,14,989.81
2016,10,16,04,15,989.77
2016,10,16,04,16,989.71
2016,10,16,04,17,989.71
2016,10,16,04,18,989.71
2016,10,16,04,19,989.71
2016,10,16,04,20,989.74
2016,10,16,04,21,989.77
2016,10,16,04,22,989.81
2016,10,16,04,23,989.74
2016,10,16,04,24,989.74
2016,10,16,04,25,989.74
2016,10,16,04,26,989.77
2016,10,16,04,27,989.81
2016,10,16,04,28,989.81
2016,10,16,04,29,989.77
2016,10,16,04,30,989.71
2016,10,16,04,31,989.71
2016,10,16,04,32,989.71
2016,10,16,04,33,989.71
2016,10,16,04,34,989.67
2016,10,16,04,35,989.74
2016,10,16,04,36,989.71
2016,10,16,04,37,989.71
2016,10,16,04,38,989.74
2016,10,16,04,39,989.74
2016,10,16,04,40,989.77
2016,10,16,04,41,989.81
2016,10,16,04,42,989.77
2016,10,16,04,43,989.77
2016,10,16,04,44,989.77
2016,10,16,04,45,989.81
2016,10,16,04,46,989.81
2016,10,16,04,47,989.77
2016,10,16,04,48,989.77
2016,10,16,04,49,989.84
2016,10,16,04,50,989.81
2016,10,16,04,51,989.74
2016,10,16,04,52,989.74
2016,10,16,04,53,989.74
2016,10,16,04,54,989.81
2016,10,16,04,55,989.77
2016,10,16,04,56,989.77
2016,10,16,04,57,989.77
2016,10,16,04,58,989.74
2016,10,16,04,59,989.71
2016,10,16,05,00,989.74
2016,10,16,05,01,989.77
2016,10,16,05,02,989.77
2016,10,16,05,03,989.74
2016,10,16,05,04,989.71
2016,10,16,05,05,989.74
2016,10,16,05,06,989.74
2016,10,16,05,07,989.74
2016,10,16,05,08,989.74
2016,10,16,05,09,989.74
2016,10,16,05,10,989.71
2016,10,16,05,11,989.74
2016,10,16,05,12,989.71
2016,10,16,05,13,989.71
2016,10,16,05,14,989.67
2016,10,16,05,15,989.67
2016,10,16,05,16,989.67
2016,10,16,05,17,989.71
2016,10,16,05,18,989.71
2016,10,16,05,19,989.71
2016,10,16,05,20,989.71
2016,10,16,05,21,989.77
2016,10,16,05,22,989.81
2016,10,16,05,23,989.81
2016,10,16,05,24,989.74
2016,10,16,05,25,989.71
2016,10,16,05,26,989.67
2016,10,16,05,27,989.71
2016,10,16,05,28,989.67
2016,10,16,05,29,989.67
2016,10,16,05,30,989.71
2016,10,16,05,31,989.71
2016,10,16,05,32,989.74
2016,10,16,05,33,989.74
2016,10,16,05,34,989.74
2016,10,16,05,35,989.74
2016,10,16,05,36,989.74
2016,10,16,05,37,989.71
2016,10,16,05,38,989.64
2016,10,16,05,39,989.64
2016,10,16,05,40,989.71
2016,10,16,05,41,989.71
2016,10,16,05,42,989.67
2016,10,16,05,43,989.64
2016,10,16,05,44,989.64
2016,10,16,05,45,989.64
2016,10,16,05,46,989.60
2016,10,16,05,47,989.57
2016,10,16,05,48,989.57
2016,10,16,05,49,989.57
2016,10,16,05,50,989.57
2016,10,16,05,51,989.64
2016,10,16,05,52,989.60
2016,10,16,05,53,989.64
2016,10,16,05,54,989.64
2016,10,16,05,55,989.64
2016,10,16,05,56,989.67
2016,10,16,05,57,989.74
2016,10,16,05,58,989.81
2016,10,16,05,59,989.81
2016,10,16,06,00,989.88
2016,10,16,06,01,989.84
2016,10,16,06,02,989.84
2016,10,16,06,03,989.84
2016,10,16,06,04,989.84
2016,10,16,06,05,989.81
2016,10,16,06,06,989.74
2016,10,16,06,07,989.77
2016,10,16,06,08,989.84
2016,10,16,06,09,989.88
2016,10,16,06,10,989.94
2016,10,16,06,11,989.94
2016,10,16,06,12,989.88
2016,10,16,06,13,989.77
2016,10,16,06,14,989.77
2016,10,16,06,15,989.77
2016,10,16,06,16,989.74
2016,10,16,06,17,989.74
2016,10,16,06,18,989.71
2016,10,16,06,19,989.71
2016,10,16,06,20,989.74
2016,10,16,06,21,989.74
2016,10,16,06,22,989.77
2016,10,16,06,23,989.84
2016,10,16,06,24,989.84
2016,10,16,06,25,989.84
2016,10,16,06,26,989.84
2016,10,16,06,27,989.81
2016,10,16,06,28,989.84
2016,10,16,06,29,989.88
2016,10,16,06,30,989.84
2016,10,16,06,31,989.81
2016,10,16,06,32,989.84
2016,10,16,06,33,989.88
2016,10,16,06,34,989.88
2016,10,16,06,35,989.88
2016,10,16,06,36,989.91
2016,10,16,06,37,989.88
2016,10,16,06,38,989.91
2016,10,16,06,39,989.91
2016,10,16,06,40,989.91
2016,10,16,06,41,989.88
2016,10,16,06,42,989.88
2016,10,16,06,43,989.91
2016,10,16,06,44,989.84
2016,10,16,06,45,989.88
2016,10,16,06,46,989.88
2016,10,16,06,47,989.84
2016,10,16,06,48,989.88
2016,10,16,06,49,989.84
2016,10,16,06,50,989.81
2016,10,16,06,51,989.88
2016,10,16,06,52,989.81
2016,10,16,06,53,989.88
2016,10,16,06,54,989.84
2016,10,16,06,55,989.84
2016,10,16,06,56,989.84
2016,10,16,06,57,989.88
2016,10,16,06,58,989.88
2016,10,16,06,59,989.88
2016,10,16,07,00,989.88
2016,10,16,07,01,989.88
2016,10,16,07,02,989.88
2016,10,16,07,03,989.88
2016,10,16,07,04,989.88
2016,10,16,07,05,989.88
2016,10,16,07,06,989.88
2016,10,16,07,07,989.94
2016,10,16,07,08,989.91
2016,10,16,07,09,989.84
2016,10,16,07,10,989.84
2016,10,16,07,11,989.84
2016,10,16,07,12,989.81
2016,10,16,07,13,989.81
2016,10,16,07,14,989.84
2016,10,16,07,15,989.88
2016,10,16,07,16,989.91
2016,10,16,07,17,989.88
2016,10,16,07,18,989.84
2016,10,16,07,19,989.88
2016,10,16,07,20,989.84
2016,10,16,07,21,989.84
2016,10,16,07,22,989.88
2016,10,16,07,23,989.88
2016,10,16,07,24,989.84
2016,10,16,07,25,989.84
2016,10,16,07,26,989.84
2016,10,16,07,27,989.91
2016,10,16,07,28,989.91
2016,10,16,07,29,989.84
2016,10,16,07,30,989.88
2016,10,16,07,31,989.84
2016,10,16,07,32,989.84
2016,10,16,07,33,989.88
2016,10,16,07,34,989.81
2016,10,16,07,35,989.84
2016,10,16,07,36,989.88
2016,10,16,07,37,989.91
2016,10,16,07,38,989.88
2016,10,16,07,39,989.88
2016,10,16,07,40,989.88
2016,10,16,07,41,989.91
2016,10,16,07,42,989.84
2016,10,16,07,43,989.84
2016,10,16,07,44,989.84
2016,10,16,07,45,989.84
2016,10,16,07,46,989.88
2016,10,16,07,47,989.88
2016,10,16,07,48,989.88
2016,10,16,07,49,989.88
2016,10,16,07,50,989.84
2016,10,16,07,51,989.81
2016,10,16,07,52,989.81
2016,10,16,07,53,989.77
2016,10,16,07,54,989.71
2016,10,16,07,55,989.74
2016,10,16,07,56,989.74
2016,10,16,07,57,989.71
2016,10,16,07,58,989.74
2016,10,16,07,59,989.74
2016,10,16,08,00,989.74
2016,10,16,08,01,989.77
2016,10,16,08,02,989.77
2016,10,16,08,03,989.81
2016,10,16,08,04,989.81
2016,10,16,08,05,989.74
2016,10,16,08,06,989.81
2016,10,16,08,07,989.81
2016,10,16,08,08,989.77
2016,10,16,08,09,989.88
2016,10,16,08,10,989.88
2016,10,16,08,11,989.81
2016,10,16,08,12,989.84
2016,10,16,08,13,989.77
2016,10,16,08,14,989.78
2016,10,16,08,15,989.91
2016,10,16,08,16,989.84
2016,10,16,08,17,989.91
2016,10,16,08,18,989.88
2016,10,16,08,19,989.98
2016,10,16,08,20,990.04
2016,10,16,08,21,990.04
2016,10,16,08,22,990.08
2016,10,16,08,23,990.04
2016,10,16,08,24,990.04
2016,10,16,08,25,990.08
2016,10,16,08,26,990.01
2016,10,16,08,27,990.08
2016,10,16,08,28,990.04
2016,10,16,08,29,990.04
2016,10,16,08,30,990.04
2016,10,16,08,31,990.02
2016,10,16,08,32,990.15
2016,10,16,08,33,990.08
2016,10,16,08,34,990.11
2016,10,16,08,35,990.08
2016,10,16,08,36,990.15
2016,10,16,08,37,990.15
2016,10,16,08,38,990.21
2016,10,16,08,39,990.15
2016,10,16,08,40,990.21
2016,10,16,08,41,990.21
2016,10,16,08,42,990.21
2016,10,16,08,43,990.25
2016,10,16,08,44,990.21
2016,10,16,08,45,990.32
2016,10,16,08,46,990.21
2016,10,16,08,47,990.28
2016,10,16,08,48,990.25
2016,10,16,08,49,990.25
2016,10,16,08,50,990.25
2016,10,16,08,51,990.28
2016,10,16,08,52,990.28
2016,10,16,08,53,990.32
2016,10,16,08,54,990.28
2016,10,16,08,55,990.28
2016,10,16,08,56,990.28
2016,10,16,08,57,990.35
2016,10,16,08,58,990.38
2016,10,16,08,59,990.35
2016,10,16,09,00,990.45
2016,10,16,09,01,990.42
2016,10,16,09,02,990.49
2016,10,16,09,03,990.42
2016,10,16,09,04,990.52
2016,10,16,09,05,990.49
2016,10,16,09,06,990.55
2016,10,16,09,07,990.49
2016,10,16,09,08,990.45
2016,10,16,09,09,990.38
2016,10,16,09,10,990.38
2016,10,16,09,11,990.38
2016,10,16,09,12,990.38
2016,10,16,09,13,990.38
2016,10,16,09,14,990.42
2016,10,16,09,15,990.45
2016,10,16,09,16,990.42
2016,10,16,09,17,990.38
2016,10,16,09,18,990.38
2016,10,16,09,19,990.35
2016,10,16,09,20,990.32
2016,10,16,09,21,990.32
2016,10,16,09,22,990.35
2016,10,16,09,23,990.38
2016,10,16,09,24,990.38
2016,10,16,09,25,990.28
2016,10,16,09,26,990.28
2016,10,16,09,27,990.32
2016,10,16,09,28,990.32
2016,10,16,09,29,990.25
2016,10,16,09,30,990.32
2016,10,16,09,31,990.25
2016,10,16,09,32,990.28
2016,10,16,09,33,990.25
2016,10,16,09,34,990.21
2016,10,16,09,35,990.25
2016,10,16,09,36,990.21
2016,10,16,09,37,990.25
2016,10,16,09,38,990.18
2016,10,16,09,39,990.11
2016,10,16,09,40,990.04
2016,10,16,09,41,990.08
2016,10,16,09,42,990.01
2016,10,16,09,43,990.04
2016,10,16,09,44,990.04
2016,10,16,09,45,990.04
2016,10,16,09,46,990.04
2016,10,16,09,47,990.04
2016,10,16,09,48,989.98
2016,10,16,09,49,990.04
2016,10,16,09,50,990.01
2016,10,16,09,51,990.01
2016,10,16,09,52,989.98
2016,10,16,09,53,990.01
2016,10,16,09,54,990.01
2016,10,16,09,55,990.04
2016,10,16,09,56,990.08
2016,10,16,09,57,990.11
2016,10,16,09,58,990.11
2016,10,16,09,59,990.11
2016,10,16,10,00,990.15
2016,10,16,10,01,990.08
2016,10,16,10,02,990.08
2016,10,16,10,03,990.08
2016,10,16,10,04,990.11
2016,10,16,10,05,990.11
2016,10,16,10,06,990.15
2016,10,16,10,07,990.21
2016,10,16,10,08,990.21
2016,10,16,10,09,990.21
2016,10,16,10,10,990.15
2016,10,16,10,11,990.21
2016,10,16,10,12,990.18
2016,10,16,10,13,990.15
2016,10,16,10,14,990.15
2016,10,16,10,15,990.08
2016,10,16,10,16,990.18
2016,10,16,10,17,990.15
2016,10,16,10,18,990.11
2016,10,16,10,19,990.08
2016,10,16,10,20,990.08
2016,10,16,10,21,990.08
2016,10,16,10,22,990.15
2016,10,16,10,23,990.15
2016,10,16,10,24,990.18
2016,10,16,10,25,990.21
2016,10,16,10,26,990.25
2016,10,16,10,27,990.21
2016,10,16,10,28,990.25
2016,10,16,10,29,990.18
2016,10,16,10,30,990.18
2016,10,16,10,31,990.21
2016,10,16,10,32,990.21
2016,10,16,10,33,990.25
2016,10,16,10,34,990.25
2016,10,16,10,35,990.25
2016,10,16,10,36,990.25
2016,10,16,10,37,990.25
2016,10,16,10,38,990.28
2016,10,16,10,39,990.25
2016,10,16,10,40,990.28
2016,10,16,10,41,990.32
2016,10,16,10,42,990.32
2016,10,16,10,43,990.28
2016,10,16,10,44,990.25
2016,10,16,10,45,990.35
2016,10,16,10,46,990.35
2016,10,16,10,47,990.28
2016,10,16,10,48,990.32
2016,10,16,10,49,990.28
2016,10,16,10,50,990.25
2016,10,16,10,51,990.32
2016,10,16,10,52,990.25
2016,10,16,10,53,990.28
2016,10,16,10,54,990.32
2016,10,16,10,55,990.32
2016,10,16,10,56,990.35
2016,10,16,10,57,990.35
2016,10,16,10,58,990.38
2016,10,16,10,59,990.38
2016,10,16,11,00,990.42
2016,10,16,11,01,990.35
2016,10,16,11,02,990.42
2016,10,16,11,03,990.38
2016,10,16,11,04,990.35
2016,10,16,11,05,990.32
2016,10,16,11,06,990.38
2016,10,16,11,07,990.35
2016,10,16,11,08,990.28
2016,10,16,11,09,990.28
2016,10,16,11,10,990.28
2016,10,16,11,11,990.25
2016,10,16,11,12,990.35
2016,10,16,11,13,990.35
2016,10,16,11,14,990.35
2016,10,16,11,15,990.38
2016,10,16,11,16,990.38
2016,10,16,11,17,990.35
2016,10,16,11,18,990.32
2016,10,16,11,19,990.35
2016,10,16,11,20,990.32
2016,10,16,11,21,990.35
2016,10,16,11,22,990.28
2016,10,16,11,23,990.38
2016,10,16,11,24,990.28
2016,10,16,11,25,990.28
2016,10,16,11,26,990.32
2016,10,16,11,27,990.25
2016,10,16,11,28,990.25
2016,10,16,11,29,990.28
2016,10,16,11,30,990.25
2016,10,16,11,31,990.25
2016,10,16,11,32,990.25
2016,10,16,11,33,990.25
2016,10,16,11,34,990.25
2016,10,16,11,35,990.21
2016,10,16,11,36,990.25
2016,10,16,11,37,990.25
2016,10,16,11,38,990.32
2016,10,16,11,39,990.32
2016,10,16,11,40,990.25
2016,10,16,11,41,990.32
2016,10,16,11,42,990.25
2016,10,16,11,43,990.32
2016,10,16,11,44,990.32
2016,10,16,11,45,990.35
2016,10,16,11,46,990.32
2016,10,16,11,47,990.28
2016,10,16,11,48,990.28
2016,10,16,11,49,990.32
2016,10,16,11,50,990.32
2016,10,16,11,51,990.25
2016,10,16,11,52,990.32
2016,10,16,11,53,990.25
2016,10,16,11,54,990.32
2016,10,16,11,55,990.28
2016,10,16,11,56,990.28
2016,10,16,11,57,990.28
2016,10,16,11,58,990.28
2016,10,16,11,59,990.32
2016,10,16,12,00,990.32
2016,10,16,12,01,990.18
2016,10,16,12,02,990.28
2016,10,16,12,03,990.28
2016,10,16,12,04,990.25
2016,10,16,12,05,990.25
2016,10,16,12,06,990.25
2016,10,16,12,07,990.32
2016,10,16,12,08,990.28
2016,10,16,12,09,990.28
2016,10,16,12,10,990.25
2016,10,16,12,11,990.18
2016,10,16,12,12,990.32
2016,10,16,12,13,990.21
2016,10,16,12,14,990.25
2016,10,16,12,15,990.28
2016,10,16,12,16,990.28
2016,10,16,12,17,990.28
2016,10,16,12,18,990.25
2016,10,16,12,19,990.25
2016,10,16,12,20,990.28
2016,10,16,12,21,990.28
2016,10,16,12,22,990.28
2016,10,16,12,23,990.25
2016,10,16,12,24,990.28
2016,10,16,12,25,990.28
2016,10,16,12,26,990.35
2016,10,16,12,27,990.32
2016,10,16,12,28,990.38
2016,10,16,12,29,990.35
2016,10,16,12,30,990.35
2016,10,16,12,31,990.35
2016,10,16,12,32,990.35
2016,10,16,12,33,990.35
2016,10,16,12,34,990.38
2016,10,16,12,35,990.42
2016,10,16,12,36,990.52
2016,10,16,12,37,990.42
2016,10,16,12,38,990.45
2016,10,16,12,39,990.42
2016,10,16,12,40,990.42
2016,10,16,12,41,990.42
2016,10,16,12,42,990.38
2016,10,16,12,43,990.42
2016,10,16,12,44,990.38
2016,10,16,12,45,990.38
2016,10,16,12,46,990.35
2016,10,16,12,47,990.35
2016,10,16,12,48,990.32
2016,10,16,12,49,990.32
2016,10,16,12,50,990.28
2016,10,16,12,51,990.28
2016,10,16,12,52,990.25
2016,10,16,12,53,990.25
2016,10,16,12,54,990.21
2016,10,16,12,55,990.18
2016,10,16,12,56,990.21
2016,10,16,12,57,990.25
2016,10,16,12,58,990.25
2016,10,16,12,59,990.28
2016,10,16,13,00,990.28
2016,10,16,13,01,990.35
2016,10,16,13,02,990.35
2016,10,16,13,03,990.32
2016,10,16,13,04,990.28
2016,10,16,13,05,990.28
2016,10,16,13,06,990.32
2016,10,16,13,07,990.35
2016,10,16,13,08,990.35
2016,10,16,13,09,990.35
2016,10,16,13,10,990.42
2016,10,16,13,11,990.42
2016,10,16,13,12,990.42
2016,10,16,13,13,990.38
2016,10,16,13,14,990.38
2016,10,16,13,15,990.55
2016,10,16,13,16,990.45
2016,10,16,13,17,990.45
2016,10,16,13,18,990.42
2016,10,16,13,19,990.38
2016,10,16,13,20,990.42
2016,10,16,13,21,990.42
2016,10,16,13,22,990.45
2016,10,16,13,23,990.42
2016,10,16,13,24,990.45
2016,10,16,13,25,990.45
2016,10,16,13,26,990.52
2016,10,16,13,27,990.38
2016,10,16,13,28,990.45
2016,10,16,13,29,990.45
2016,10,16,13,30,990.45
2016,10,16,13,31,990.45
2016,10,16,13,32,990.45
2016,10,16,13,33,990.45
2016,10,16,13,34,990.52
2016,10,16,13,35,990.45
2016,10,16,13,36,990.42
2016,10,16,13,37,990.45
2016,10,16,13,38,990.45
2016,10,16,13,39,990.45
2016,10,16,13,40,990.45
2016,10,16,13,41,990.45
2016,10,16,13,42,990.38
2016,10,16,13,43,990.38
2016,10,16,13,44,990.38
2016,10,16,13,45,990.45
2016,10,16,13,46,990.42
2016,10,16,13,47,990.38
2016,10,16,13,48,990.45
2016,10,16,13,49,990.52
2016,10,16,13,50,990.45
2016,10,16,13,51,990.42
2016,10,16,13,52,990.38
2016,10,16,13,53,990.42
2016,10,16,13,54,990.42
2016,10,16,13,55,990.38
2016,10,16,13,56,990.42
2016,10,16,13,57,990.42
2016,10,16,13,58,990.42
2016,10,16,13,59,990.45
2016,10,16,14,00,990.52
2016,10,16,14,01,990.42
2016,10,16,14,02,990.55
2016,10,16,14,03,990.52
2016,10,16,14,04,990.45
2016,10,16,14,05,990.42
2016,10,16,14,06,990.42
2016,10,16,14,07,990.45
2016,10,16,14,08,990.38
2016,10,16,14,09,990.42
2016,10,16,14,10,990.38
2016,10,16,14,11,990.35
2016,10,16,14,12,990.32
2016,10,16,14,13,990.35
2016,10,16,14,14,990.35
2016,10,16,14,15,990.32
2016,10,16,14,16,990.28
2016,10,16,14,17,990.42
2016,10,16,14,18,990.32
2016,10,16,14,19,990.32
2016,10,16,14,20,990.32
2016,10,16,14,21,990.32
2016,10,16,14,22,990.32
2016,10,16,14,23,990.35
2016,10,16,14,24,990.35
2016,10,16,14,25,990.32
2016,10,16,14,26,990.35
2016,10,16,14,27,990.42
2016,10,16,14,28,990.38
2016,10,16,14,29,990.45
2016,10,16,14,30,990.38
2016,10,16,14,31,990.38
2016,10,16,14,32,990.42
2016,10,16,14,33,990.35
2016,10,16,14,34,990.38
2016,10,16,14,35,990.38
2016,10,16,14,36,990.38
2016,10,16,14,37,990.35
2016,10,16,14,38,990.35
2016,10,16,14,39,990.35
2016,10,16,14,40,990.38
2016,10,16,14,41,990.32
2016,10,16,14,42,990.42
2016,10,16,14,43,990.38
2016,10,16,14,44,990.32
2016,10,16,14,45,990.32
2016,10,16,14,46,990.35
2016,10,16,14,47,990.32
2016,10,16,14,48,990.32
2016,10,16,14,49,990.35
2016,10,16,14,50,990.35
2016,10,16,14,51,990.42
2016,10,16,14,52,990.38
2016,10,16,14,53,990.35
2016,10,16,14,54,990.38
2016,10,16,14,55,990.42
2016,10,16,14,56,990.35
2016,10,16,14,57,990.42
2016,10,16,14,58,990.28
2016,10,16,14,59,990.32
2016,10,16,15,00,990.38
2016,10,16,15,01,990.32
2016,10,16,15,02,990.35
2016,10,16,15,03,990.38
2016,10,16,15,04,990.42
2016,10,16,15,05,990.35
2016,10,16,15,06,990.45
2016,10,16,15,07,990.49
2016,10,16,15,08,990.49
2016,10,16,15,09,990.49
2016,10,16,15,10,990.52
2016,10,16,15,11,990.55
2016,10,16,15,12,990.49
2016,10,16,15,13,990.49
2016,10,16,15,14,990.59
2016,10,16,15,15,990.59
2016,10,16,15,16,990.55
2016,10,16,15,17,990.55
2016,10,16,15,18,990.62
2016,10,16,15,19,990.69
2016,10,16,15,20,990.59
2016,10,16,15,21,990.62
2016,10,16,15,22,990.65
2016,10,16,15,23,990.65
2016,10,16,15,24,990.69
2016,10,16,15,25,990.65
2016,10,16,15,26,990.65
2016,10,16,15,27,990.69
2016,10,16,15,28,990.69
2016,10,16,15,29,990.72
2016,10,16,15,30,990.69
2016,10,16,15,31,990.72
2016,10,16,15,32,990.76
2016,10,16,15,33,990.69
2016,10,16,15,34,990.69
2016,10,16,15,35,990.76
2016,10,16,15,36,990.76
2016,10,16,15,37,990.76
2016,10,16,15,38,990.76
2016,10,16,15,39,990.76
2016,10,16,15,40,990.79
2016,10,16,15,41,990.76
2016,10,16,15,42,990.82
2016,10,16,15,43,990.76
2016,10,16,15,44,990.76
2016,10,16,15,45,990.79
2016,10,16,15,46,990.82
2016,10,16,15,47,990.86
2016,10,16,15,48,990.82
2016,10,16,15,49,990.82
2016,10,16,15,50,990.82
2016,10,16,15,51,990.89
2016,10,16,15,52,990.82
2016,10,16,15,53,990.86
2016,10,16,15,54,990.86
2016,10,16,15,55,990.82
2016,10,16,15,56,990.86
2016,10,16,15,57,990.89
2016,10,16,15,58,990.89
2016,10,16,15,59,990.82
2016,10,16,16,00,990.89
2016,10,16,16,01,990.93
2016,10,16,16,02,990.93
2016,10,16,16,03,990.86
2016,10,16,16,04,990.93
2016,10,16,16,05,990.89
2016,10,16,16,06,990.93
2016,10,16,16,07,990.89
2016,10,16,16,08,990.93
2016,10,16,16,09,990.96
2016,10,16,16,10,990.89
2016,10,16,16,11,990.89
2016,10,16,16,12,990.93
2016,10,16,16,13,990.93
2016,10,16,16,14,990.93
2016,10,16,16,15,990.96
2016,10,16,16,16,990.96
2016,10,16,16,17,990.96
2016,10,16,16,18,990.99
2016,10,16,16,19,990.96
2016,10,16,16,20,990.99
2016,10,16,16,21,990.96
2016,10,16,16,22,991.06
2016,10,16,16,23,990.99
2016,10,16,16,24,990.99
2016,10,16,16,25,990.99
2016,10,16,16,26,990.99
2016,10,16,16,27,990.89
2016,10,16,16,28,990.99
2016,10,16,16,29,990.96
2016,10,16,16,30,990.89
2016,10,16,16,31,990.93
2016,10,16,16,32,990.86
2016,10,16,16,33,990.86
2016,10,16,16,34,990.82
2016,10,16,16,35,990.89
2016,10,16,16,36,990.79